CAPE
1928 1304 1645 2158 2087 2156 2265 2283 2339 2391 2408 2433 2388 2305 2267 2159 2067 2088 2075 1986 1978 1892 1745 1737 1632 1379 1328 1235 1170 1189 1306 1298 1080 994 1023 931 874 842 922 906 826 652 796 909 1135 1192 1096 1174 1223 994 680 680 652 665 620 847 838 761 716 639 607 591 584 555 554 517 528 473 534 502 479 417 317 219 161 771 756 579 562 591 169 166 155 357 351
1975 1403 1664 1854 1951 2110 2249 2265 2334 2322 2432 2447 2416 2423 2309 2141 2045 2169 2166 2073 2010 1972 1862 1775 1634 1252 1413 1338 1280 1335 1296 1241 1214 1021 971 945 944 941 919 933 900 889 836 893 1006 1067 1124 1296 1264 766 701 676 704 623 681 753 806 729 645 561 526 552 561 617 562 575 554 538 514 406 294 299 234 184 524 553 537 492 332 279 352 185 278 349 300
1860 1433 1643 1788 2111 2165 2190 2278 2300 2401 2442 2462 2548 2326 2224 2199 2111 2247 2164 2013 1961 1916 1827 1760 1624 1505 1460 1348 1313 1247 1296 1184 1113 1152 1083 1018 935 910 897 918 833 869 898 945 949 967 1021 1238 1104 889 831 849 870 894 785 716 707 656 697 699 615 555 614 539 533 556 637 491 311 277 171 174 147 170 206 347 366 234 306 446 357 225 183 293 259
1552 1442 1674 2042 1992 2018 2213 2272 2349 2408 2469 2531 2391 2325 2240 2187 2189 2237 2173 2034 1969 1914 1778 1753 1632 1541 1377 1339 1306 1294 1236 1101 980 923 911 878 880 849 824 810 800 848 889 942 976 899 942 1117 1145 959 856 891 816 763 816 871 744 650 679 706 630 538 588 783 521 456 518 468 379 324 392 94 124 114 220 293 250 276 215 324 419 441 329 243 263
1562 1572 1671 1471 1633 1950 2212 2274 2276 2195 2485 2505 2430 2378 2308 2264 2228 2034 1887 2018 1966 1900 1773 1650 1652 1585 1404 1340 1384 1381 1133 1035 957 877 855 789 811 858 820 789 737 801 867 908 941 907 978 980 933 933 950 790 674 693 868 854 788 724 742 566 482 504 504 471 486 558 583 763 657 696 553 88 316 385 315 279 309 196 148 147 168 259 212 184 154
1416 1279 1209 1327 1350 1807 2058 2232 2144 2030 2369 2556 2436 2276 2308 2323 2155 1978 1950 1905 1920 1750 1580 1661 1713 1601 1545 1464 1392 1273 1108 1036 1008 974 955 865 863 715 716 781 838 750 718 813 802 603 745 797 726 873 976 845 1186 1335 935 807 843 882 695 583 532 625 748 731 628 515 660 665 886 949 515 373 328 431 514 373 290 242 262 327 390 362 248 176 104
1217 989 1048 1141 1365 1732 2001 2200 2135 2108 2062 2274 2248 2219 2171 2184 2119 1955 1898 1813 1778 1707 1650 1724 1725 1636 1534 1421 1224 1018 994 1001 955 1054 1237 1246 930 958 735 771 809 732 741 674 668 745 775 814 761 865 890 955 1014 994 1066 1167 1140 947 679 666 628 656 520 694 625 756 911 971 1120 1112 595 544 382 462 498 358 268 194 145 152 270 151 75 213 97
1400 1339 1011 928 1436 1887 2057 2263 2280 2237 2241 2233 2234 2198 2168 2099 2090 1974 1887 1828 1782 1722 1769 1733 1643 1544 1384 1224 1176 1147 1062 968 892 942 1183 1176 1071 849 844 698 688 678 672 579 541 766 825 732 744 762 703 828 763 776 1125 1278 1127 979 954 810 729 566 391 438 492 527 564 637 731 1250 681 556 492 546 774 426 295 237 248 219 453 454 253 166 94
1654 1212 979 1171 1614 2074 2138 2224 2349 2392 2286 2192 2185 2297 2264 2112 2019 1907 1898 1830 1810 1779 1710 1687 1649 1472 1334 1244 1199 1095 1042 1029 1087 1165 1164 1154 1245 997 896 840 955 1220 1184 1364 1633 1197 787 745 793 848 820 762 695 652 908 1111 1149 1098 917 779 591 497 432 433 466 510 546 766 796 1062 655 643 468 382 446 420 409 356 230 367 474 193 153 70 12
1468 1574 1218 1258 1707 2011 2006 2215 2356 2332 2302 2305 2244 2305 2249 2339 2193 2013 1992 1919 1816 1802 1766 1759 1628 1463 1237 1266 1222 1158 1135 1279 1198 1288 1130 1022 1019 902 889 854 852 935 1052 1163 1101 1005 865 845 856 846 804 758 715 872 1052 1033 1015 959 892 816 733 609 663 633 594 631 555 857 991 917 828 432 465 419 298 226 276 263 710 665 503 331 46 3 0
1618 1539 1340 1333 1951 1917 2045 2204 2425 2380 2357 2383 2306 2275 2362 2334 2246 2072 1958 1951 1912 1812 1829 1679 1558 1368 1329 1317 1361 1370 1513 1332 1311 1357 1242 1053 925 928 922 919 807 803 923 980 1018 996 1020 976 902 912 950 1100 998 892 904 978 906 899 851 766 554 672 638 520 605 561 581 649 1276 1061 951 617 548 376 179 146 150 124 154 125 150 144 96 32 14
1734 1666 1545 1825 2270 1899 2064 2301 2405 2475 2494 2391 2477 2396 2385 2343 2285 2081 1987 1942 1949 1874 1784 1753 1693 1518 1470 1521 1626 1641 1582 1477 1444 1343 1275 963 865 955 985 836 795 764 788 848 890 986 1031 1008 1146 1076 968 1060 948 875 905 851 841 871 896 705 606 616 609 454 565 538 524 525 786 522 440 541 429 306 264 37 38 72 47 21 42 88 51 1 1
1689 1748 2101 2059 2044 2000 2143 2283 2561 2604 2574 2615 2466 2437 2361 2357 2219 2143 2041 1995 1905 1943 1763 1756 1775 1783 1920 1798 1634 1772 1741 1560 1526 1478 1334 1111 1039 971 945 879 790 736 727 738 840 972 1100 1107 1044 950 1021 944 805 648 583 820 945 857 813 641 610 632 699 664 501 570 522 359 725 670 502 476 476 321 250 72 57 22 10 1 3 20 20 11 4
2005 1792 1707 1780 1988 2309 2167 2288 2523 2676 2754 2641 2538 2395 2402 2289 2215 2193 2221 2150 2223 2270 2222 2158 2100 2137 2090 1919 1846 1916 1860 1712 1597 1563 1306 1203 1116 1035 1020 944 850 718 652 638 725 960 1003 1000 958 969 888 738 720 662 692 713 784 945 773 574 643 646 628 651 683 694 451 409 941 875 604 385 227 183 50 35 28 27 20 8 22 28 14 2 5
1861 1712 1639 1817 1904 2048 2310 2221 2410 2560 2577 2501 2389 2314 2300 2248 2294 2318 2326 2420 2428 2432 2341 2344 2408 2292 2044 2061 2043 2042 1842 1689 1612 1509 1278 1167 1153 1112 1062 1022 875 744 687 845 913 965 893 869 850 939 816 759 600 606 637 940 987 904 891 775 667 932 865 604 654 768 431 428 731 565 511 443 574 369 300 143 42 14 9 7 2 6 3 2 5
1718 1620 1628 1850 1771 1894 1940 2142 2230 2430 2482 2448 2436 2522 2331 2320 2306 2258 2377 2438 2398 2382 2433 2404 2404 2384 2164 2110 1904 2008 2044 1931 1717 1647 1460 1258 1277 1176 1110 1039 953 863 1419 1323 1119 1010 905 851 883 907 887 894 915 893 1040 1045 1027 1075 1010 921 910 1024 692 1003 506 898 369 363 654 558 469 517 643 425 144 36 40 32 10 6 19 23 9 4 3
1666 1603 1640 1541 1557 1478 1716 1956 2109 2266 2386 2451 2473 2672 2648 2502 2472 2509 2519 2521 2438 2444 2517 2525 2501 2401 2324 2075 1908 1843 1863 1955 1802 1553 1467 1424 1360 1322 1196 1109 1038 1175 1346 1244 1190 1057 930 882 861 1012 930 863 888 941 1132 1236 1170 1158 1135 853 694 706 1070 1164 765 774 268 332 697 460 451 389 667 482 214 92 53 16 16 21 22 17 12 5 3
1513 1770 1552 1566 1346 1507 1662 1695 2059 2130 2168 2388 2559 2570 2599 2633 2529 2546 2657 2501 2517 2510 2408 2449 2497 2459 2237 2188 1946 1837 1826 1880 1801 1601 1570 1589 1665 1533 1485 1386 1292 1403 1347 1221 1092 1062 958 939 867 989 938 943 910 1092 976 1226 1282 1209 1159 1037 877 911 865 1050 784 853 281 355 585 419 474 659 654 271 126 40 24 32 27 18 24 20 6 6 3
1438 1418 1555 1540 1448 1608 1546 1841 2028 2072 2312 2286 2282 2428 2371 2203 2253 2495 2415 2516 2622 2619 2457 2423 2365 2346 2279 2249 2070 1877 1919 1950 2018 1992 1758 1766 1738 1689 1627 1485 1500 1502 1445 1330 1181 1084 1060 918 966 1137 937 884 1098 1101 1082 978 1158 1271 1218 1301 870 725 1121 1374 785 0 0 647 607 343 506 617 472 234 244 177 42 7 17 22 8 7 1 4 2
1389 1384 1605 1602 1604 1357 1665 1646 1803 1961 2064 2281 2373 2262 2211 2168 2149 2280 2265 2300 2425 2312 2193 1966 2103 2184 2011 2092 2014 1886 1800 1872 1555 1771 1752 1710 1869 1473 1535 1606 1596 1640 1500 1332 1205 1106 1026 1046 1094 1223 1108 987 1056 1013 1009 1034 961 1050 1186 1251 865 1400 1280 893 531 147 327 594 475 338 561 653 549 357 238 176 97 53 14 8 8 6 4 2 2
1264 1282 1440 1657 1513 1407 1517 1465 1416 1708 1855 2134 2248 2082 2000 2110 1933 2021 2053 2215 2134 2005 1856 1825 1915 1975 2151 2050 1727 1494 1334 1590 1618 1159 1482 1679 1890 1744 1724 1790 1698 1551 1504 1348 1366 1247 1135 1178 1241 1394 1236 1092 981 995 1074 1032 996 1140 929 1199 1115 890 720 758 136 142 27 651 608 545 758 696 421 269 270 217 140 72 5 5 1 0 2 0 1
1155 1175 1227 1453 1730 1584 1294 1461 1562 1770 1676 1934 1981 1909 1805 2063 2130 1791 2082 2114 1940 1991 1695 1689 1748 1729 1733 1858 1646 1750 1575 1478 1210 1252 1438 1449 1680 2084 1834 1875 1751 1560 1580 1558 1572 1456 1266 1292 1515 1419 1181 1062 1015 688 688 870 730 805 1102 1172 948 748 680 816 461 245 403 470 581 888 833 533 427 337 322 255 166 81 9 7 0 0 0 0 0
979 1354 1369 1267 1369 1608 1406 1588 1538 1740 1951 2035 1952 1919 1863 1964 1777 2076 1950 1838 1882 1883 1758 1650 1735 1670 1474 1449 1281 1476 1414 1510 1686 1308 1544 1474 1456 2278 2148 2001 1939 1766 1697 1691 1567 1480 1421 1391 1500 1340 1311 1299 829 408 408 634 456 688 627 908 845 818 1004 707 462 815 397 552 513 906 884 634 529 406 293 275 237 117 85 7 0 0 1 1 0
1240 1156 1436 1497 1353 1530 1581 1569 1698 1774 1933 1825 1858 1878 2016 2124 1955 1887 1724 1643 1753 1555 1325 1427 1456 1601 1630 1519 1035 1211 1208 1184 1684 1567 1179 1435 1899 2423 2286 2260 2084 1827 1342 1560 1602 1531 1377 1475 1393 1286 1281 762 152 54 258 263 90 361 678 658 618 835 692 751 358 429 322 417 697 962 791 796 548 426 369 240 198 190 108 10 0 0 0 0 0
1243 1048 1252 1480 1982 1748 2274 1499 1583 1833 1673 1828 1770 2011 1953 1938 1806 1927 1667 1422 1502 1630 1721 1306 1330 1215 1238 1226 1331 1064 975 1528 1536 1390 1260 1263 991 1439 1584 1753 1540 1537 1625 789 1051 1327 1304 938 1020 1078 508 131 6 2 2 233 231 82 198 462 788 749 462 875 952 351 272 447 864 1003 938 894 886 198 217 106 149 100 160 49 6 1 2 0 0
1163 825 916 1120 1406 944 1429 2069 1656 1378 1500 1461 1689 1731 1602 1974 1979 1970 1498 1284 1154 1374 1059 896 1260 1246 1293 1376 1035 957 1134 1754 1583 1802 1406 1988 1529 1418 1478 2095 1092 758 1636 815 971 1121 825 510 606 359 228 201 256 536 398 452 265 354 663 294 668 584 643 694 645 784 505 406 973 1026 982 917 904 175 230 74 17 115 175 38 55 1 2 0 0
1424 1373 1105 924 611 747 1120 1276 1811 1650 1322 1187 1408 1390 1418 1562 1841 1893 1680 1263 1252 1154 1004 1142 1503 1560 1108 1131 888 1159 1412 1334 1708 1335 1331 1537 1314 1538 1509 1560 1605 1539 1330 1052 540 836 908 538 581 466 405 474 435 304 360 200 211 128 26 406 382 482 753 650 729 775 602 481 933 1113 1087 1099 983 663 379 340 83 63 157 134 91 14 0 0 1
1474 1478 1244 982 845 741 830 787 1127 1169 1196 1176 1230 1198 1093 1279 1100 1702 1946 1604 1231 1020 1167 1517 1431 1363 1375 1176 1088 992 937 954 1651 1418 1465 1019 1006 1127 1045 917 1284 1414 1184 1424 879 572 700 733 644 459 332 319 403 490 393 290 295 166 349 230 388 260 668 1156 716 883 622 501 636 1033 1033 1186 1062 1063 545 452 219 130 202 169 145 55 0 0 0
1585 1524 1220 599 780 811 804 886 1081 1041 793 1230 1097 1160 915 964 830 1218 1310 1449 1400 1299 1234 1278 1483 1470 1216 1110 1261 1316 1449 913 1233 1203 1281 972 774 909 866 1209 1135 1302 831 1415 1023 747 860 692 828 669 568 430 456 570 372 371 364 411 408 222 360 380 289 491 647 670 738 483 413 777 1131 1122 1249 1192 1254 562 381 234 270 191 202 147 22 0 0
1313 1064 745 645 577 427 450 952 846 577 878 886 830 907 840 1190 830 944 1446 1415 1090 1340 1352 1195 1005 967 1142 994 680 1196 1351 1120 1662 1086 1154 1130 956 1229 1324 1524 1078 1384 1430 1310 1395 1270 1221 747 876 801 389 552 313 476 603 370 357 436 349 352 145 211 551 476 416 435 510 710 593 574 992 1112 1020 1235 1306 750 648 415 347 242 259 188 75 6 0
998 843 680 653 704 248 378 350 453 993 427 543 819 1058 1330 1100 938 1351 1425 1339 1171 823 1002 1200 1661 1164 1186 1020 940 1255 1020 1227 1573 1866 1674 1543 1322 1594 1947 1706 1724 1756 1529 1492 1412 1365 1350 499 408 434 562 580 577 547 319 415 313 362 410 344 214 67 144 476 360 433 432 806 522 402 923 927 1038 1283 1167 1280 1052 678 533 420 401 261 170 30 35
1028 912 878 600 595 301 207 354 561 1156 704 289 427 573 625 570 1041 1136 930 718 702 921 928 876 1103 1156 982 899 1060 1039 1026 1206 1570 2094 1970 2072 1642 1724 1630 1722 1544 1894 1786 1615 1560 1374 1180 505 580 634 928 664 692 886 698 527 369 358 325 350 325 352 252 513 347 351 426 751 504 524 609 684 1168 1051 1269 1149 1322 1177 739 659 447 351 327 158 96
862 1239 1047 789 1190 1174 944 596 456 819 735 706 659 616 711 306 531 694 1187 1167 812 634 616 732 1216 1657 1532 1458 1180 1005 968 1247 1845 2207 1487 1401 1599 1415 1450 1755 2101 1693 1322 1243 1496 1519 1413 1061 575 849 457 579 741 413 502 557 364 337 528 391 341 288 256 211 463 508 593 405 916 1089 754 602 675 1079 1085 1150 1056 1215 1302 958 621 546 430 268 223
858 1087 1174 1329 850 986 1142 888 587 495 855 756 839 604 665 496 324 1036 1841 1779 1482 630 729 847 1368 1758 1458 1096 1120 1554 1324 1957 1780 2061 2233 1722 1612 1194 1210 1358 1895 1653 1462 1765 1543 1454 1560 1217 718 505 654 685 860 642 600 600 623 787 789 672 483 684 418 239 212 398 330 359 532 997 919 812 531 661 796 1501 1192 1043 1117 1307 884 694 572 422 326
982 949 1255 1276 1101 1058 1118 1085 1168 707 554 432 626 679 870 646 701 871 969 1370 1746 1340 1476 1246 1270 1602 1599 1136 820 1034 1510 1766 1953 2156 1979 1501 1435 1214 1004 1306 1458 1450 1548 1521 1581 1831 1422 1127 1187 1618 832 941 635 656 1322 996 930 826 984 936 741 672 527 415 413 382 414 561 254 520 848 828 816 575 422 764 1093 1063 999 1217 1477 1105 843 552 494
1346 1218 1361 1575 1208 1432 1426 1539 1243 1218 1309 1258 1217 1014 822 772 763 747 1172 911 961 962 1786 1435 1184 1766 1349 979 934 1206 1036 984 1643 2026 2052 1906 1544 1608 1266 1726 1689 1600 1638 1531 1560 1356 1583 1663 1524 1614 843 759 716 1071 1207 1140 686 883 972 887 849 787 695 534 568 453 212 413 332 422 531 495 842 596 790 414 463 864 904 1019 1200 1231 1286 1034 688
1202 1220 1246 1814 1410 1648 1696 1765 1548 1453 1319 1279 1078 917 1085 839 654 378 498 435 963 795 840 905 1275 1289 1307 1316 1474 1363 1195 1668 1505 1831 2137 1737 1304 1588 1439 1506 1786 1800 1458 1502 1643 1386 1289 1523 1328 1400 1522 1031 565 990 1173 1214 1001 1148 935 789 594 658 707 613 595 454 341 319 215 206 178 438 378 1402 938 658 604 471 744 906 1064 1101 1227 1065 980
1463 1604 1688 1637 1280 1360 1655 1926 1627 1394 1346 1255 781 858 619 217 538 378 494 349 458 592 690 688 911 1165 1378 1341 1407 1676 1490 1424 1487 1402 1759 1163 1367 1179 1294 1607 1501 1486 1474 1156 1036 1213 1638 1699 1667 1389 1333 1148 1049 894 1040 1067 859 1168 1305 1353 1499 1170 902 824 452 516 466 383 280 210 103 313 356 163 290 566 838 764 648 554 899 1009 1073 1060 907
1642 1563 1804 1513 1201 1574 1633 1940 1769 1411 1186 1093 1288 810 656 483 14 216 0 152 388 31 394 487 674 1008 1301 1214 977 1514 1236 1446 1395 1483 1379 1295 1401 1442 1566 1566 1629 1665 1574 1003 1102 1193 1205 1328 1468 1415 1296 883 1172 1054 1316 1045 737 651 600 1337 1498 1214 1165 1058 860 655 565 458 386 301 170 65 47 285 328 552 474 978 1008 429 526 803 926 961 1025
1708 1649 1619 1615 1658 2097 2000 2092 1744 1288 1332 1246 987 405 434 548 325 472 256 140 269 267 608 495 565 582 669 730 946 1118 823 1036 1076 1434 1300 1189 1495 1638 1492 1510 1518 1401 1468 1214 1009 911 844 822 826 867 829 1014 1342 936 656 572 636 754 865 847 744 876 1230 1184 962 671 451 285 340 215 181 90 121 255 380 274 309 511 1092 1049 504 666 620 900 927
1756 1591 1615 1723 1936 1992 2032 1954 1427 1316 928 663 705 437 574 576 661 624 284 163 177 277 404 385 244 161 90 0 45 218 430 362 631 676 919 1490 1204 1668 1667 1312 1294 1364 1200 890 842 796 787 781 735 1096 1016 952 1020 739 397 520 568 570 917 900 680 705 1012 879 506 470 418 460 230 271 246 145 95 165 315 470 454 342 977 857 956 556 589 701 695
1666 1574 1317 1654 1723 2054 2098 1753 1345 1144 1193 949 1352 1002 686 307 366 386 260 91 2 64 146 247 161 183 142 269 378 147 304 500 457 300 550 994 1463 1400 1570 1606 1399 1282 1218 982 893 929 787 1067 1090 1008 971 897 821 803 701 694 490 480 573 587 586 859 1263 584 81 217 755 435 282 226 292 397 331 220 223 246 296 231 156 592 835 915 844 745 841
1365 1820 1576 1527 1659 2129 2244 1577 1138 1084 1034 1277 541 888 768 895 764 293 458 6 2 92 1 12 37 49 332 235 408 550 594 59 0 83 321 516 657 890 1226 1186 904 972 838 794 910 853 976 909 674 761 785 667 597 703 580 521 453 507 522 214 286 519 562 577 774 378 731 538 158 97 289 72 28 69 283 346 355 291 319 203 198 345 466 691 896
1105 1319 1686 1649 1545 1402 1921 1736 1088 883 1146 746 955 1114 869 672 540 49 10 17 0 113 69 72 34 35 58 136 96 74 3 52 86 44 5 64 886 773 830 837 982 1100 795 797 1082 819 720 736 580 849 675 528 447 527 738 432 459 371 120 100 485 458 295 418 640 694 990 605 90 80 16 6 2 12 27 467 283 435 495 177 159 114 181 325 459
890 1012 1824 1690 1620 1400 1790 1708 866 948 844 793 1073 712 574 644 367 0 0 0 0 23 116 145 121 28 98 89 220 386 144 78 14 0 9 103 94 188 237 567 875 773 969 827 968 851 736 722 805 790 480 480 452 514 530 368 397 530 697 292 217 178 288 454 436 698 774 711 273 45 94 101 7 9 128 50 270 707 545 796 718 411 155 156 134
917 1009 1438 1932 1961 1840 2022 1393 783 877 740 1008 864 663 665 400 336 28 0 10 107 286 118 38 200 93 18 212 52 58 48 94 0 16 13 86 244 185 329 154 442 351 156 209 84 508 696 585 806 545 655 550 674 312 343 303 434 402 733 668 718 575 357 619 494 289 787 536 362 305 228 184 153 354 307 251 382 706 782 303 719 640 419 338 389
829 924 1199 1439 2336 2197 2147 1299 758 743 702 934 616 569 454 163 111 0 6 56 257 618 441 322 70 84 292 170 186 277 36 88 62 8 2 21 34 21 42 6 0 1 15 13 1 21 0 35 255 575 499 320 611 277 324 302 389 342 410 454 473 604 693 633 502 383 339 606 396 355 664 112 142 196 156 51 204 803 623 715 748 734 601 451 504
503 505 550 1110 2114 2320 2081 1194 749 739 602 972 533 389 276 141 158 15 114 330 415 141 228 164 244 148 291 138 165 172 29 70 63 0 0 0 0 0 0 1 0 0 0 4 36 29 45 9 63 140 152 370 450 204 129 63 165 40 165 203 223 343 358 353 261 361 195 127 444 580 768 377 330 232 155 71 275 1067 889 1002 1099 710 575 522 349
484 656 550 952 2080 2360 1945 1175 791 784 767 1000 372 324 288 150 335 220 204 405 150 152 16 1 41 277 279 404 176 26 97 18 0 0 0 0 0 0 0 0 0 0 0 0 2 18 62 79 79 104 85 56 81 126 130 121 156 284 265 256 208 173 368 301 346 107 150 39 38 92 276 873 615 431 252 170 100 275 579 833 827 814 564 384 307
734 553 640 873 1989 2210 1938 966 812 758 811 918 343 399 322 125 385 176 422 96 51 6 0 88 110 260 327 61 12 18 2 0 0 0 0 0 0 0 0 0 0 0 0 0 0 0 0 2 22 23 21 7 4 0 0 0 0 0 0 458 139 187 248 231 230 181 110 30 46 1 17 18 7 646 586 172 22 8 11 6 37 308 297 360 549
1029 595 668 1219 1437 2005 1951 872 741 740 803 829 389 478 375 168 345 274 495 60 60 144 76 72 71 96 9 66 32 46 15 0 0 0 0 0 0 0 0 0 0 0 0 0 0 0 0 0 0 0 0 0 0 0 0 0 0 0 0 0 0 0 0 0 0 0 0 0 0 0 0 0 0 0 56 167 142 27 3 1 14 11 42 31 27
Wind_Speed
39 41 38 40 40 40 39 40 39 39 38 37 36 35 35 35 36 36 36 36 35 35 36 35 34 34 32 29 29 26 24 24 24 24 23 22 22 21 20 21 22 22 22 22 22 22 23 22 21 21 20 19 19 19 19 19 20 21 24 27 28 27 25 25 24 21 21 21 20 19 19 18 17 17 17 21 21 20 11 8 11 8 6 7 8
39 40 38 40 42 41 40 41 40 40 39 38 38 36 36 36 37 36 37 37 35 35 35 35 35 34 32 30 28 26 24 24 24 24 23 23 22 21 20 20 21 22 22 21 22 22 23 22 23 21 20 20 20 19 19 18 19 20 22 24 25 26 25 25 23 20 19 21 21 20 19 20 19 18 20 20 21 21 20 17 15 9 7 9 10
39 39 38 41 42 42 40 40 41 40 40 39 39 37 37 36 37 38 38 37 36 36 34 34 34 34 31 30 28 26 25 24 24 23 23 22 22 22 20 20 21 21 22 21 21 23 23 23 23 22 21 20 20 20 19 18 18 19 21 24 26 25 25 21 20 19 20 18 19 19 20 20 20 20 20 19 20 20 22 20 15 13 9 11 10
39 38 37 39 41 41 40 40 40 41 40 38 39 38 38 37 39 38 38 38 37 36 34 34 33 32 31 29 28 27 26 25 24 24 23 22 23 23 20 20 20 21 22 22 22 22 23 23 24 22 22 21 21 21 20 20 19 18 20 23 26 27 23 22 18 18 17 17 17 15 13 nan 17 20 20 19 20 21 20 17 15 15 14 12 12
39 38 37 36 37 38 39 40 39 41 39 39 39 39 39 39 39 39 39 38 37 36 35 34 34 32 31 29 28 27 26 26 25 24 23 22 22 23 21 20 21 21 21 22 22 22 22 22 23 22 22 22 20 20 19 20 19 18 21 24 25 23 23 22 21 16 13 10 10 16 15 nan 15 19 18 19 19 19 17 16 14 13 14 14 13
38 37 36 35 35 36 39 38 38 39 40 39 40 41 40 40 40 40 40 39 38 37 36 35 34 33 31 29 28 27 27 26 25 24 23 23 22 22 22 21 21 21 21 21 21 22 22 21 23 23 22 22 24 22 21 20 19 20 21 23 21 22 22 21 20 16 15 7 8 12 13 17 16 17 20 18 18 18 18 18 15 12 12 11 12
39 36 36 35 34 35 37 38 38 37 38 39 40 40 40 41 41 41 40 40 39 38 36 35 34 33 31 30 28 28 27 26 26 25 23 22 22 22 23 21 21 22 21 20 22 23 22 22 24 23 22 23 23 23 22 21 21 20 21 20 20 21 22 21 19 18 14 12 10 9 13 19 17 15 19 18 17 17 17 16 16 14 nan 15 nan
38 35 34 34 34 35 36 37 38 38 37 38 39 40 41 41 41 41 41 41 40 38 36 35 34 33 32 31 29 28 27 26 26 25 25 25 24 23 22 22 21 21 21 20 21 23 22 22 23 23 23 24 24 23 23 25 24 23 21 20 20 20 19 19 18 17 16 12 13 10 16 19 20 18 19 21 20 17 16 18 17 16 17 17 nan
39 37 36 35 36 37 37 37 38 39 38 40 40 40 41 41 41 42 41 42 40 38 36 35 34 33 32 31 30 28 27 26 26 26 25 25 25 24 24 23 23 23 24 25 26 24 23 23 26 27 26 25 23 22 23 24 24 24 21 19 19 20 20 21 22 21 17 13 11 19 22 22 21 19 21 20 18 17 14 15 17 19 19 nan nan
41 39 37 35 35 38 37 38 39 39 40 41 40 41 41 41 41 42 42 42 41 38 36 35 35 33 32 32 30 28 27 27 26 26 26 26 25 24 23 24 24 24 25 26 26 26 27 26 26 26 26 26 24 24 25 24 24 23 20 18 17 20 23 24 24 24 16 16 24 26 24 24 20 19 20 19 19 18 21 22 19 18 nan nan nan
41 38 36 36 37 38 37 37 38 40 41 40 40 41 41 40 41 41 41 41 41 38 36 35 34 33 32 31 30 28 27 27 26 26 25 26 25 23 23 24 24 24 25 25 25 25 27 28 27 28 28 28 27 25 25 25 24 22 20 18 16 20 24 24 25 21 21 13 24 22 26 27 19 17 19 19 18 19 21 21 20 18 nan nan nan
39 36 36 36 39 37 38 38 38 39 40 40 39 40 40 39 40 41 40 39 38 37 35 34 32 32 32 31 30 28 27 27 26 25 25 25 26 24 23 23 24 25 25 26 26 25 26 27 29 29 28 28 26 26 25 24 24 21 20 16 15 18 22 26 25 21 21 27 24 21 23 23 20 19 22 nan nan nan nan nan nan nan nan nan nan
38 37 37 36 36 36 37 38 38 39 39 39 39 39 39 38 39 39 38 37 35 34 33 32 31 31 31 31 30 29 28 27 26 25 24 25 26 25 22 22 22 23 24 25 27 28 27 26 27 27 29 29 26 25 25 24 23 22 20 15 14 18 25 30 27 25 21 25 22 24 25 21 21 23 21 nan nan nan nan nan nan nan nan nan nan
39 39 39 36 35 38 37 37 36 37 37 38 38 36 36 36 36 37 36 34 34 33 31 30 30 31 30 30 30 29 28 27 25 24 24 24 25 25 23 22 21 21 22 23 25 27 28 27 26 27 30 30 28 25 24 24 22 22 20 16 17 20 26 27 25 24 20 26 23 24 23 20 21 23 nan nan nan nan nan nan nan nan nan nan nan
38 39 38 37 37 36 38 36 35 35 35 36 36 36 35 33 32 33 33 33 33 31 31 31 30 30 31 32 31 30 29 27 25 24 23 23 24 25 24 23 22 21 22 24 26 26 26 27 26 27 29 28 27 25 24 24 23 22 20 18 18 20 25 25 27 27 25 24 23 26 23 21 22 23 23 21 nan nan nan nan nan nan nan nan nan
38 37 36 36 37 36 35 37 35 34 35 35 35 35 33 32 30 31 31 30 31 31 31 31 30 29 29 30 30 30 29 28 26 23 23 23 23 25 25 24 22 23 26 26 26 25 24 25 25 25 27 26 26 26 25 26 24 22 20 20 18 19 21 24 25 28 27 22 25 27 24 23 25 24 24 nan nan nan nan nan nan nan nan nan nan
41 38 37 37 37 34 34 33 33 35 34 34 33 32 32 31 30 29 29 29 30 31 31 31 30 30 29 30 29 28 28 27 26 24 23 22 23 24 25 24 24 25 26 25 25 25 24 22 23 23 24 26 26 25 25 25 25 23 21 20 19 18 19 24 26 27 28 31 26 26 24 22 25 24 25 nan nan nan nan nan nan nan nan nan nan
41 40 37 38 35 31 30 30 30 31 32 33 32 31 31 30 29 29 29 30 31 31 31 31 30 30 30 29 29 29 27 26 25 23 22 22 23 24 25 25 25 26 26 26 25 25 24 22 21 20 22 24 27 26 25 24 24 24 22 19 19 16 18 23 25 24 32 33 28 26 25 24 25 25 25 nan nan nan nan nan nan nan nan nan nan
44 42 40 37 32 30 29 28 27 28 29 28 27 30 31 30 28 30 32 32 32 32 33 32 31 30 30 30 29 29 28 26 25 23 22 23 23 25 25 26 26 26 26 25 25 24 25 23 20 19 21 23 26 27 26 25 24 24 23 21 19 19 20 21 24 nan nan 33 27 27 26 25 24 25 25 22 nan nan nan nan nan nan nan nan nan
41 41 40 32 30 30 28 28 27 27 26 26 27 29 30 30 30 31 33 33 34 35 34 33 32 32 30 30 30 29 28 25 25 23 22 22 22 21 24 26 27 26 25 25 24 23 23 23 21 20 21 22 24 26 26 26 24 23 23 22 23 24 20 19 24 29 34 30 28 27 27 27 24 25 25 22 nan nan nan nan nan nan nan nan nan
39 39 36 33 31 30 31 28 26 27 26 25 25 27 28 30 30 32 32 33 33 37 35 34 32 32 30 28 29 27 25 24 22 22 19 19 18 22 23 25 26 26 25 23 22 21 21 22 21 21 20 21 23 25 25 25 24 22 21 24 24 24 20 22 25 28 nan 31 29 29 28 27 26 26 26 23 22 nan nan nan nan nan nan nan nan
36 37 33 32 31 33 30 27 25 26 25 24 23 24 25 26 27 27 28 30 32 35 30 27 29 25 26 25 25 24 24 23 25 18 17 17 20 22 23 23 24 23 22 21 20 20 20 20 20 20 18 18 21 21 22 24 25 22 23 22 27 24 22 24 25 27 34 32 31 30 32 30 27 27 25 24 24 nan nan nan nan nan nan nan nan
36 34 34 32 29 30 31 32 29 26 25 23 23 23 25 23 27 26 26 28 29 29 25 24 25 25 24 24 23 21 23 23 23 20 18 18 20 19 21 21 21 21 20 20 20 19 19 19 18 17 16 17 18 19 22 23 24 24 25 27 28 25 23 25 25 25 32 32 33 33 32 31 27 25 24 24 25 24 nan nan nan nan nan nan nan
35 32 29 29 29 29 32 31 29 27 24 23 23 24 24 23 25 26 25 26 27 25 22 24 22 23 23 22 22 19 19 22 19 19 19 17 19 17 18 19 19 20 20 18 19 17 17 17 16 15 14 15 15 nan 20 23 nan 27 29 29 29 27 29 26 25 29 27 31 33 34 34 33 28 26 26 25 25 24 23 nan nan nan nan nan nan
33 30 26 25 26 29 27 28 26 24 24 22 23 24 24 22 24 25 26 27 25 23 24 22 19 22 21 23 19 19 15 19 18 18 15 16 16 16 15 15 16 15 17 18 18 15 15 14 15 15 15 14 nan nan nan 20 22 nan 27 29 30 32 28 26 27 31 27 30 34 36 35 35 33 28 28 26 25 24 23 nan nan nan nan nan nan
30 31 31 31 26 28 23 25 26 25 25 22 21 22 23 22 23 24 30 28 26 24 23 21 19 18 22 21 17 19 17 19 19 19 16 17 16 15 15 15 13 13 14 16 18 16 14 15 17 16 15 15 14 16 16 21 20 22 28 32 36 35 32 29 30 32 27 30 33 37 36 35 33 30 28 nan nan 24 24 nan nan nan nan nan nan
25 28 33 35 31 28 30 24 27 26 25 24 22 24 23 23 21 24 30 30 27 23 20 21 20 19 19 21 20 22 21 19 17 19 18 19 20 15 13 12 13 14 14 17 17 16 16 18 18 17 16 17 18 18 17 18 19 22 nan 32 35 34 31 28 31 29 27 29 31 34 34 33 33 29 28 28 nan nan 24 24 nan nan nan nan nan
24 25 24 30 36 41 39 30 30 28 24 23 22 22 22 20 22 22 27 30 31 28 23 24 22 18 19 22 21 22 22 16 16 18 20 22 17 12 12 10 11 12 12 17 17 16 16 19 19 17 20 19 19 19 18 16 18 20 22 29 36 39 38 32 31 29 28 28 29 30 31 31 31 30 29 28 27 26 24 24 25 nan nan nan nan
24 21 22 23 28 31 32 36 37 34 29 28 27 24 23 22 20 22 23 24 26 28 27 26 23 21 22 20 19 19 20 17 16 18 20 22 19 13 12 12 12 8 9 10 13 12 16 19 20 19 20 21 19 20 19 16 18 17 17 25 33 38 38 35 32 30 28 27 27 28 29 29 30 28 30 29 28 27 25 26 27 27 nan nan nan
21 20 19 18 23 26 29 32 29 33 36 34 31 27 28 29 28 25 24 25 25 26 25 26 25 25 24 19 13 16 18 19 19 19 20 24 19 14 14 17 15 12 10 13 14 15 15 19 22 19 20 19 19 18 20 19 18 17 16 18 28 36 38 36 34 31 28 26 27 27 28 29 30 29 30 29 28 27 27 28 27 28 nan nan nan
20 21 19 20 22 23 27 25 29 25 26 29 30 31 30 32 27 25 27 25 24 22 24 22 23 25 26 22 17 16 15 17 15 16 19 21 20 18 17 19 16 16 16 17 17 16 17 19 21 16 18 18 18 21 18 19 19 19 17 15 21 nan 36 39 36 32 28 29 27 27 27 27 28 29 30 30 30 29 28 28 28 27 27 nan nan
20 19 20 22 18 22 26 28 27 25 21 29 27 28 25 27 32 29 26 25 24 24 19 20 21 23 24 24 25 17 16 14 10 12 18 21 23 24 21 18 15 17 16 17 16 16 18 17 16 15 22 21 20 21 18 20 19 20 19 16 19 26 32 36 37 33 29 31 28 27 27 26 27 27 29 30 32 31 29 28 28 27 27 26 nan
19 18 24 21 21 25 26 26 25 21 22 25 25 26 24 24 25 26 29 31 30 28 22 21 20 24 25 24 27 24 23 20 18 17 20 23 24 27 22 19 19 18 18 17 16 17 18 18 17 18 21 18 18 19 20 23 20 21 21 20 21 23 31 36 37 35 35 32 28 27 26 26 27 26 27 29 30 31 30 28 28 27 28 27 27
19 21 23 22 24 24 25 25 23 23 21 23 20 23 24 24 22 26 28 26 30 31 30 24 22 26 26 25 24 24 24 22 23 22 22 24 26 27 25 21 21 20 19 19 18 18 18 18 19 18 16 18 18 18 19 20 18 22 25 28 29 29 34 34 37 37 36 37 34 29 28 27 28 29 29 28 28 28 28 28 27 26 28 28 26
22 25 25 26 26 26 25 23 23 22 22 21 21 22 22 23 27 28 27 25 25 29 30 27 27 26 30 29 25 23 21 21 24 25 24 24 27 27 28 23 22 20 20 20 20 19 20 21 22 18 20 18 18 18 22 23 21 22 23 25 27 30 33 37 38 36 36 35 34 33 32 29 28 29 29 30 27 26 26 26 26 27 29 28 27
26 28 28 28 28 26 25 25 23 22 24 22 22 22 22 25 25 26 27 25 26 28 29 30 30 31 32 29 26 28 25 21 22 26 25 26 26 28 28 24 24 22 21 22 21 21 23 24 24 21 21 20 19 21 19 23 23 23 22 24 24 25 27 32 36 37 37 38 36 34 33 33 31 28 28 28 28 26 23 24 24 25 27 28 28
30 30 30 30 30 27 25 23 23 23 22 23 21 20 20 22 24 23 25 24 28 28 29 32 34 32 31 29 29 29 28 29 27 27 26 27 27 26 26 26 23 24 23 22 22 21 23 25 25 24 22 23 22 24 23 23 24 23 23 23 23 23 25 27 29 32 36 39 38 37 35 35 32 29 28 27 27 27 22 22 22 22 24 27 27
32 31 30 30 29 26 22 22 22 22 21 21 20 17 20 20 21 24 23 25 27 29 29 33 34 33 31 30 29 30 29 29 29 28 29 30 27 25 23 25 25 24 24 22 23 21 23 25 26 25 25 23 24 23 24 22 22 23 22 23 24 24 25 27 28 30 33 36 39 39 37 38 35 32 30 29 27 26 26 22 20 22 22 25 25
30 31 29 30 28 23 22 22 23 23 22 21 20 22 19 22 nan 20 nan 21 27 nan 29 32 32 32 32 32 30 28 30 29 28 30 31 30 28 26 22 25 25 24 24 24 23 22 23 23 24 26 26 26 25 23 22 20 22 21 21 23 23 24 25 26 27 30 33 36 38 41 42 nan nan 36 34 31 28 28 26 26 25 26 25 22 24
29 30 30 31 26 25 21 22 23 23 23 21 20 20 21 21 21 20 21 22 26 27 27 28 29 31 30 31 30 29 30 29 30 31 31 30 30 26 24 24 24 24 24 25 23 22 21 22 23 22 23 23 24 23 23 21 22 21 22 22 23 23 25 25 26 29 32 33 36 40 43 nan 45 42 37 34 31 30 27 28 26 26 25 24 21
28 31 28 28 26 24 24 24 23 23 23 21 20 20 20 22 22 24 23 21 24 25 30 29 29 29 nan nan nan 32 31 30 29 30 31 31 29 28 25 25 25 25 26 23 21 23 20 19 23 23 21 22 22 22 23 21 22 22 21 19 21 22 24 25 27 28 29 31 32 35 41 45 nan 44 42 40 38 34 33 29 29 27 25 25 22
28 28 26 27 23 25 24 25 23 23 22 21 21 21 20 24 21 24 24 nan nan nan 28 29 28 27 27 27 28 30 32 31 31 30 28 31 32 31 27 26 26 26 27 26 22 22 21 20 21 24 22 22 23 22 22 23 22 19 18 19 20 21 24 26 nan 27 28 30 31 31 35 41 43 42 44 44 42 39 36 34 30 28 26 24 24
28 26 23 25 23 25 26 25 23 23 22 23 23 22 21 21 21 22 23 nan nan nan nan nan nan nan 26 27 27 28 30 nan nan nan 30 31 32 32 31 30 28 30 28 26 25 22 21 21 21 23 25 23 23 23 24 23 23 23 23 24 22 23 25 26 26 28 29 31 31 nan 28 nan nan nan 44 47 45 44 43 42 39 33 30 25 27
27 23 20 24 23 24 26 28 26 24 24 24 23 24 23 22 24 nan nan nan nan 25 nan nan nan nan nan 26 nan nan nan nan nan nan nan nan 30 32 31 32 30 31 30 29 27 26 24 22 21 22 25 25 24 23 25 23 24 26 26 nan 25 26 26 25 27 28 28 30 nan nan nan nan nan nan nan 42 45 47 46 44 42 40 39 37 34
27 20 22 24 22 25 29 30 29 27 25 24 25 25 23 22 24 nan nan nan nan nan 25 26 26 nan nan nan 26 27 28 nan nan nan nan 33 nan 31 30 31 30 30 30 29 28 27 26 25 23 23 24 24 26 25 25 25 25 24 28 29 27 26 26 28 28 27 26 25 26 nan nan 31 nan nan 36 nan 42 47 46 45 45 43 41 40 39
26 22 22 22 26 26 30 31 30 30 28 26 27 24 22 23 23 nan nan nan 25 25 26 nan 26 nan nan 27 nan nan nan nan nan nan nan nan 30 30 29 31 30 31 29 28 nan 29 27 27 27 25 23 25 25 26 27 25 25 26 26 27 26 25 26 26 26 25 25 22 21 21 22 29 33 33 35 35 41 43 42 44 45 44 43 42 41
27 23 21 19 26 29 31 32 32 32 31 30 28 24 24 23 23 nan nan nan 25 26 27 27 nan nan 28 28 27 26 nan nan nan nan nan nan nan nan nan nan nan nan nan nan nan nan nan nan 27 27 28 25 27 27 28 28 25 31 26 24 24 24 23 25 24 24 22 23 22 19 19 21 26 32 35 nan 39 40 40 41 42 42 43 43 42
29 28 17 15 27 31 33 34 32 34 33 33 29 26 26 26 25 nan 24 24 27 27 28 27 28 28 28 28 26 26 nan nan nan nan nan nan nan nan nan nan nan nan nan nan nan nan nan nan nan 28 28 26 28 31 27 nan 27 nan 26 27 23 23 23 24 24 23 21 19 20 19 16 15 17 22 29 nan 38 39 40 39 40 40 41 42 42
29 27 16 15 28 33 35 35 34 35 36 35 31 27 29 30 28 26 25 27 29 27 nan nan nan 27 26 26 26 nan nan nan nan nan nan nan nan nan nan nan nan nan nan nan nan nan nan nan nan 26 nan nan nan 26 27 28 28 28 26 24 24 24 23 22 23 23 21 nan nan nan 17 17 16 16 20 25 30 35 39 41 40 41 41 40 41
30 32 23 18 29 34 35 38 36 36 37 37 33 30 32 33 31 29 28 nan nan nan nan nan 26 24 26 nan nan nan nan nan nan nan nan nan nan nan nan nan nan nan nan nan nan nan nan nan nan nan nan nan nan nan nan nan nan nan nan 25 24 25 23 22 21 22 21 nan nan nan nan nan nan 21 20 18 nan nan nan nan nan 40 42 41 41
37 34 30 23 25 35 38 41 39 37 38 38 35 33 34 34 33 31 29 nan nan 26 nan nan nan nan nan nan nan nan nan nan nan nan nan nan nan nan nan nan nan nan nan nan nan nan nan nan nan nan nan nan nan nan nan nan nan nan nan nan nan nan nan nan nan nan nan nan nan nan nan nan nan nan nan 20 19 nan nan nan nan nan nan nan nan
Wind_Direction
275 280 278 279 278 278 279 281 283 284 286 288 291 293 294 295 295 295 294 296 296 296 297 295 295 295 294 291 287 283 279 276 276 281 280 277 271 264 259 255 253 255 255 256 258 259 259 259 258 256 253 251 247 242 240 235 231 230 228 224 223 222 223 226 229 234 236 237 236 233 228 228 221 214 210 199 198 192 199 198 219 196 171 186 208
279 278 277 277 279 279 281 282 284 287 287 288 290 292 294 296 297 297 295 296 297 296 296 296 296 297 295 293 288 283 278 274 272 274 275 274 272 265 258 254 251 251 254 253 251 255 258 259 258 254 252 251 248 242 240 239 236 232 229 226 224 224 223 225 230 237 239 240 238 235 233 227 219 211 209 204 200 200 204 212 213 193 167 206 205
278 278 277 280 281 281 282 284 287 288 289 290 291 295 297 297 298 297 296 296 297 298 297 296 296 298 296 294 289 285 279 276 273 272 273 272 271 266 259 254 250 249 251 252 252 253 258 263 260 256 251 247 245 244 243 242 240 234 228 227 226 223 223 225 228 235 243 246 248 246 245 237 220 208 207 208 204 206 212 211 215 207 189 212 203
279 278 276 278 280 281 284 287 288 289 289 291 294 297 297 297 296 296 294 294 295 295 294 294 295 295 296 294 291 285 280 277 275 272 270 269 268 266 260 255 252 248 249 251 252 254 258 260 264 260 254 248 244 240 240 243 243 236 228 225 225 222 216 215 223 233 242 258 262 253 227 nan 223 219 215 213 209 210 214 216 213 214 215 210 213
278 276 275 277 279 281 284 287 288 291 291 292 294 296 296 295 295 296 296 293 293 293 292 292 294 296 296 295 291 286 283 279 276 274 270 266 264 265 262 255 252 249 249 251 252 256 256 260 262 260 259 250 242 240 241 243 243 239 231 226 224 219 216 211 209 222 236 256 278 231 233 nan 225 224 222 219 212 215 217 217 216 211 210 209 210
276 274 275 275 278 282 284 286 289 293 294 294 296 297 295 293 294 296 295 294 292 292 292 292 293 295 296 295 291 288 285 281 277 273 269 264 261 263 261 257 252 251 251 252 254 253 256 256 260 263 259 254 244 241 241 240 242 241 234 228 220 216 211 209 204 197 211 202 172 183 230 238 233 220 226 220 215 208 204 207 214 214 217 223 220
274 273 274 276 277 281 284 286 290 293 296 298 298 297 296 295 295 295 295 295 292 293 292 292 293 294 295 294 291 288 284 281 278 273 266 261 258 256 259 258 254 252 252 250 252 251 252 254 257 257 259 255 249 240 238 242 243 239 238 229 217 210 207 201 193 199 182 201 190 199 219 242 237 229 227 223 215 209 210 216 214 212 nan 212 nan
272 273 275 277 276 282 284 286 290 292 296 298 298 297 297 297 295 294 294 293 292 292 292 293 293 294 294 293 291 287 283 280 277 268 263 260 257 256 255 256 254 254 253 248 249 255 255 255 259 262 262 258 250 244 239 239 241 240 236 227 212 206 199 198 189 185 181 185 199 191 240 242 236 231 231 224 212 203 202 213 215 212 209 213 nan
274 277 276 276 277 283 283 284 287 291 294 296 297 297 297 297 296 294 292 292 291 292 292 293 293 295 295 293 291 288 284 280 273 269 265 261 259 257 253 251 248 245 245 245 244 245 246 252 253 255 257 255 253 249 242 240 240 239 236 227 207 196 188 188 189 179 185 187 197 221 243 243 239 232 229 218 210 201 193 213 219 214 212 nan nan
275 274 275 274 279 283 284 285 287 291 294 295 296 297 296 297 295 295 293 292 293 293 293 294 294 295 295 294 293 290 285 279 275 270 266 264 264 260 256 254 251 250 251 251 253 251 243 246 257 260 261 261 259 256 247 239 239 238 235 228 211 187 186 186 181 184 184 186 230 232 239 244 241 237 241 228 214 210 218 220 215 215 nan nan nan
276 275 274 275 281 283 285 286 287 292 294 295 296 297 297 296 296 295 295 295 295 296 295 294 294 293 293 294 293 291 285 279 274 269 267 266 267 262 259 255 255 256 256 257 258 257 253 253 254 258 261 261 262 259 253 247 241 238 233 224 207 188 184 180 182 190 178 196 235 234 243 248 236 232 243 239 223 218 217 216 215 213 nan nan nan
273 272 272 275 281 282 285 286 290 292 293 295 296 297 297 297 295 296 296 296 296 296 295 293 292 293 295 294 293 290 284 279 272 269 266 268 269 267 262 257 257 259 259 259 261 262 261 258 257 261 263 262 260 256 254 250 243 241 237 227 207 191 180 180 186 188 180 221 230 236 238 239 238 239 246 nan nan nan nan nan nan nan nan nan nan
271 273 272 275 278 281 284 287 289 292 294 295 296 297 297 297 297 297 297 295 296 295 296 294 292 291 293 294 295 290 286 280 273 268 265 266 268 268 264 261 260 262 264 265 265 264 265 266 263 263 263 262 259 254 251 250 246 239 237 230 208 194 189 181 186 181 188 224 224 228 234 232 235 247 242 nan nan nan nan nan nan nan nan nan nan
270 273 273 275 276 282 282 286 289 291 293 293 292 293 294 297 298 297 298 297 296 297 295 293 292 292 292 295 295 291 286 282 276 268 265 264 266 267 267 266 267 266 270 272 272 270 268 267 267 266 263 262 260 256 252 248 246 243 234 222 213 200 191 188 182 178 201 217 223 232 228 227 237 251 nan nan nan nan nan nan nan nan nan nan nan
278 278 276 274 279 281 283 283 285 289 291 290 290 291 294 295 296 297 299 300 300 297 297 295 293 294 295 295 293 290 288 285 279 270 263 264 266 267 268 270 269 270 269 270 275 275 271 267 266 265 265 263 260 256 252 249 245 241 237 223 215 204 197 194 190 180 215 212 220 231 227 226 244 248 249 244 nan nan nan nan nan nan nan nan nan
277 276 276 280 281 279 279 283 283 286 287 289 290 292 294 294 296 299 298 299 298 296 295 294 295 294 294 292 291 290 287 285 280 271 263 262 264 266 269 271 273 273 271 273 275 275 272 270 267 264 264 263 259 254 250 246 245 244 238 230 218 207 198 196 192 186 211 207 220 227 223 224 239 241 244 nan nan nan nan nan nan nan nan nan nan
270 275 279 284 283 280 279 282 283 282 282 288 291 292 292 294 296 296 295 295 296 293 291 292 292 291 291 291 291 289 286 285 281 272 266 263 264 265 267 270 273 272 273 276 277 275 274 273 268 263 261 259 261 257 254 249 244 243 237 233 224 212 198 198 197 187 208 199 220 227 223 224 237 236 238 nan nan nan nan nan nan nan nan nan nan
274 279 283 284 283 283 284 283 284 283 284 285 289 292 292 292 293 290 289 292 293 290 289 287 288 288 288 286 287 286 285 282 281 273 267 264 261 264 265 269 271 273 275 278 280 279 277 274 268 265 260 257 259 259 254 250 244 240 235 230 226 216 207 197 204 196 212 210 211 220 223 231 239 240 238 nan nan nan nan nan nan nan nan nan nan
271 277 281 281 286 287 287 285 289 287 287 287 289 292 292 295 289 288 286 287 287 284 285 284 286 286 285 283 283 281 280 280 278 273 266 265 266 265 267 268 272 275 277 280 283 284 281 278 274 270 264 260 259 260 258 251 243 236 234 227 220 219 208 206 205 nan nan 219 208 216 220 230 231 236 239 234 nan nan nan nan nan nan nan nan nan
272 274 276 278 284 291 287 287 287 286 286 288 288 292 294 295 289 285 291 292 289 283 283 286 289 289 287 284 279 275 274 274 277 269 271 269 269 267 271 272 274 276 278 281 286 286 283 281 279 274 269 266 263 261 260 254 245 234 229 226 217 214 216 216 208 216 223 221 216 214 226 227 226 231 235 233 nan nan nan nan nan nan nan nan nan
271 271 275 282 288 290 290 285 284 285 291 289 289 290 286 287 287 287 290 290 287 284 284 287 281 282 284 280 275 271 272 269 271 276 279 276 272 274 276 277 276 276 277 280 282 285 283 281 279 276 273 270 266 264 260 258 250 242 230 225 221 218 215 219 221 213 nan 222 217 217 228 226 225 225 230 229 234 nan nan nan nan nan nan nan nan
271 270 274 278 281 284 284 285 287 298 293 284 286 286 287 290 287 288 289 286 283 282 284 284 285 282 277 273 263 265 271 273 269 267 273 276 271 281 279 277 277 276 273 275 278 278 278 278 277 277 277 273 273 257 255 258 259 251 240 232 228 222 210 224 224 217 228 219 219 221 229 229 225 224 226 228 231 nan nan nan nan nan nan nan nan
272 272 275 282 284 284 286 287 294 293 289 287 284 286 293 288 290 290 287 286 284 285 284 285 287 288 279 270 262 258 261 261 267 279 275 272 275 283 281 279 279 280 278 279 279 277 274 279 279 277 279 280 265 250 252 252 252 259 250 234 229 226 224 221 226 220 228 224 222 229 228 229 226 226 228 226 227 229 nan nan nan nan nan nan nan
268 275 278 283 291 291 289 289 294 296 290 289 290 287 287 290 289 288 285 280 280 281 283 284 286 286 277 266 266 266 260 257 266 273 275 268 272 276 278 274 280 283 286 276 277 279 283 285 284 282 269 266 262 nan 249 250 nan 249 247 235 227 227 230 223 220 226 229 230 228 234 232 228 224 228 226 223 225 227 229 nan nan nan nan nan nan
275 277 281 286 284 280 279 294 295 293 288 286 288 286 289 289 289 290 284 279 281 275 276 282 285 289 280 269 266 265 265 263 258 259 258 261 257 261 261 262 259 266 280 264 264 266 273 271 271 270 257 260 nan nan nan 259 249 nan 247 237 229 233 230 231 222 230 222 227 231 235 231 226 219 226 226 224 226 225 227 nan nan nan nan nan nan
288 291 295 294 297 297 301 295 296 289 286 288 286 289 287 280 282 286 284 280 278 278 285 290 287 285 279 273 274 278 271 254 258 257 258 257 255 248 246 243 245 245 267 257 263 268 270 273 275 272 265 265 266 255 253 258 266 253 241 237 230 225 228 229 232 233 226 227 233 237 232 229 225 228 230 nan nan 227 228 nan nan nan nan nan nan
285 292 293 297 301 306 308 309 296 294 296 295 295 293 287 284 279 288 289 280 276 281 288 296 293 293 290 279 270 270 264 257 257 259 258 258 254 246 248 251 242 237 249 245 261 265 267 271 270 271 267 263 256 257 253 257 253 245 nan 233 227 226 227 232 240 239 234 231 233 242 236 233 230 231 234 232 nan nan 229 229 nan nan nan nan nan
285 286 287 285 296 303 310 309 301 300 297 291 284 282 284 278 281 281 279 283 287 287 295 297 288 286 281 273 269 255 254 260 260 255 259 256 260 265 259 261 256 246 240 241 239 254 263 267 270 266 262 259 262 257 257 258 262 251 239 233 230 220 217 224 235 236 241 237 235 240 241 236 234 234 236 237 231 232 233 230 232 nan nan nan nan
282 287 289 291 292 290 301 307 308 311 302 298 294 288 278 276 276 276 279 280 279 279 286 290 287 276 268 266 262 272 279 269 268 263 262 268 265 267 275 274 264 255 250 252 262 255 261 267 267 261 259 261 259 266 264 259 258 261 249 241 235 230 221 219 226 232 239 238 236 238 244 240 236 233 237 240 237 234 234 234 234 235 nan nan nan
290 295 296 291 290 291 297 297 303 302 305 307 298 299 302 300 300 300 292 287 283 284 288 289 287 282 274 269 271 263 265 269 261 268 272 274 285 292 290 284 283 273 271 272 269 259 252 259 269 266 265 258 263 271 269 263 264 260 258 247 241 232 231 225 223 225 231 239 237 236 244 241 237 232 231 237 245 242 238 237 239 236 nan nan nan
303 303 295 281 274 290 283 289 276 272 290 292 290 295 294 291 293 289 285 277 277 279 283 280 280 282 280 283 275 259 259 252 244 267 276 281 284 283 272 269 266 262 260 265 266 268 261 258 257 260 263 264 259 262 263 265 266 268 264 252 247 nan 231 228 225 226 228 238 237 236 237 244 240 236 230 227 233 241 244 243 242 241 238 nan nan
287 280 277 275 282 280 282 275 275 272 261 280 282 283 281 284 293 294 286 283 281 275 276 278 274 277 280 282 277 278 271 270 273 268 271 268 268 266 267 274 270 261 257 263 269 275 275 269 272 273 263 252 254 249 259 263 263 261 261 258 243 237 237 235 230 223 229 236 238 238 236 239 245 239 235 233 228 230 239 242 246 248 246 243 nan
275 279 277 284 280 270 270 276 279 279 280 268 268 270 271 272 279 285 289 295 297 295 298 288 281 277 282 283 286 289 288 286 285 279 277 274 274 278 280 284 281 269 266 266 262 263 265 275 276 272 272 272 263 263 251 247 248 252 250 256 251 236 227 231 236 225 225 233 240 243 242 239 240 243 242 237 235 232 230 236 242 247 251 247 245
290 283 285 285 280 279 278 281 287 283 276 273 272 264 263 268 272 274 279 283 288 299 300 292 295 287 279 274 265 268 269 269 275 272 269 274 280 287 293 290 282 282 279 273 271 264 265 268 267 270 280 276 271 266 265 264 259 247 244 239 234 228 226 225 234 234 229 227 230 241 244 244 241 239 236 240 242 238 235 231 237 242 246 247 246
294 290 290 283 280 282 282 283 282 277 276 278 270 270 262 257 263 265 273 276 278 276 277 287 288 282 280 271 272 269 263 268 272 274 275 278 282 291 291 291 286 286 284 279 274 273 274 270 261 254 270 268 275 266 256 254 252 253 248 248 243 231 225 225 225 233 239 241 233 229 240 246 244 244 238 238 240 245 242 237 234 233 242 244 247
294 296 293 285 283 283 284 282 279 274 269 270 268 268 264 261 263 269 271 273 274 273 280 282 277 282 280 277 278 280 286 279 273 277 280 281 286 287 290 290 296 293 286 285 285 282 277 270 263 259 264 264 268 267 265 259 254 253 249 249 250 243 236 233 229 228 232 240 244 239 233 240 246 246 247 243 242 245 251 244 240 239 239 244 249
295 299 295 288 287 287 286 288 283 277 277 275 274 267 271 267 266 266 272 275 274 277 276 277 278 277 279 284 278 273 269 274 277 277 280 282 288 288 288 294 289 288 287 282 279 277 280 273 263 260 260 264 264 270 264 260 257 255 253 251 251 249 246 242 239 236 235 234 238 243 241 241 238 245 251 248 246 245 254 255 249 246 244 247 250
299 299 292 288 288 290 294 295 289 283 281 277 279 281 270 272 265 262 255 259 260 262 264 270 270 269 271 272 270 268 268 267 271 274 275 278 281 284 290 293 291 290 287 282 276 270 270 269 270 266 265 265 263 261 266 263 260 259 258 254 253 252 251 250 248 243 240 239 235 233 240 244 241 242 244 248 251 250 250 256 259 254 251 249 250
299 295 292 286 287 293 296 297 292 289 285 285 280 273 272 270 nan 275 nan 273 269 nan 261 263 267 271 273 274 268 267 267 270 273 273 279 283 282 287 288 288 289 287 286 279 274 268 266 269 272 273 267 263 264 262 259 263 264 260 256 258 258 258 257 256 255 253 248 245 241 236 230 nan nan 241 244 242 243 251 250 251 249 247 248 254 250
293 290 290 286 289 297 298 294 293 290 288 284 286 284 286 283 283 279 267 262 265 261 262 268 266 266 267 270 270 267 266 268 273 279 281 283 285 286 289 286 282 284 281 281 280 278 273 274 274 277 276 271 268 268 266 262 262 262 255 253 257 260 261 260 258 258 259 255 251 243 235 nan 232 229 236 240 242 243 249 249 251 250 248 255 259
288 289 287 289 296 299 300 298 295 292 293 290 288 288 287 287 284 283 283 281 273 272 268 263 265 260 nan nan nan 259 261 259 264 270 277 282 281 284 284 284 284 284 283 283 285 280 280 281 280 280 279 278 275 279 280 272 269 262 255 259 260 261 264 264 261 259 260 262 260 253 242 234 nan 231 228 231 234 233 243 245 249 249 248 248 258
288 289 290 293 300 299 300 299 295 297 296 294 284 277 281 291 293 290 288 nan nan nan 275 274 269 268 266 262 261 263 263 262 263 266 267 278 286 285 285 281 279 278 281 288 285 279 281 277 276 279 278 279 280 283 286 287 277 273 270 271 269 269 266 265 nan 263 263 262 261 261 247 236 234 231 229 229 228 228 231 242 247 248 249 246 255
288 290 292 296 302 303 300 299 298 297 294 286 283 278 275 276 282 277 280 nan nan nan nan nan nan nan 269 265 259 256 262 nan nan nan 274 273 277 283 286 288 283 281 276 276 286 283 282 283 281 281 282 280 281 283 287 294 281 272 270 273 271 269 266 263 266 266 269 265 262 nan 251 nan nan nan 234 233 233 232 231 230 231 233 239 247 252
288 285 295 298 301 304 303 301 300 295 290 289 288 283 283 286 283 nan nan nan nan 276 nan nan nan nan nan 270 nan nan nan nan nan nan nan nan 277 283 287 286 289 289 291 293 289 288 287 284 282 279 279 280 281 284 287 282 276 275 275 nan 270 267 265 267 269 270 269 269 nan nan nan nan nan nan nan 238 237 237 236 237 237 235 232 228 232
292 292 293 300 299 305 305 305 303 297 296 297 293 292 291 289 290 nan nan nan nan nan 281 280 281 nan nan nan 271 271 270 nan nan nan nan 271 nan 274 278 282 282 286 290 292 292 288 289 289 286 284 284 282 284 279 280 277 271 268 271 274 270 267 266 266 269 273 274 269 268 nan nan 251 nan nan 243 nan 239 241 238 240 240 240 239 236 232
301 294 288 301 303 306 305 304 303 300 302 301 300 298 297 299 298 nan nan nan 290 289 287 nan 287 nan nan 278 nan nan nan nan nan nan nan nan 276 272 272 275 273 269 268 273 nan 286 292 289 287 278 278 275 278 281 277 275 272 272 271 270 272 268 266 268 269 273 273 267 264 262 259 251 249 246 247 245 242 241 240 241 242 241 242 242 240
298 281 275 298 308 306 306 305 304 304 304 303 306 305 301 301 300 nan nan nan 295 285 282 280 nan nan 279 282 280 278 nan nan nan nan nan nan nan nan nan nan nan nan nan nan nan nan nan nan 280 287 287 288 284 280 278 273 276 274 271 272 269 270 266 267 269 272 272 267 267 271 271 262 251 245 244 nan 246 245 242 242 242 244 245 246 247
283 261 245 304 315 308 307 306 305 305 304 304 309 309 304 303 304 nan 300 296 288 287 285 283 280 280 282 283 283 281 nan nan nan nan nan nan nan nan nan nan nan nan nan nan nan nan nan nan nan 268 272 272 278 284 288 nan 282 nan 278 279 279 275 271 265 264 267 272 265 264 268 267 270 265 255 248 nan 245 247 244 243 242 243 246 246 248
296 284 274 292 311 306 305 305 305 303 303 304 307 308 304 305 304 302 300 291 291 289 nan nan nan 283 284 281 277 nan nan nan nan nan nan nan nan nan nan nan nan nan nan nan nan nan nan nan nan 269 nan nan nan 273 277 281 282 282 285 280 284 283 280 275 270 269 269 nan nan nan 266 275 278 274 266 256 248 246 246 245 243 242 243 245 247
296 294 284 278 301 302 305 305 303 301 301 303 305 308 305 304 303 303 298 nan nan nan nan nan 281 282 279 nan nan nan nan nan nan nan nan nan nan nan nan nan nan nan nan nan nan nan nan nan nan nan nan nan nan nan nan nan nan nan nan 272 275 277 275 272 269 269 269 nan nan nan nan nan nan 281 285 277 nan nan nan nan nan 246 244 245 247
298 302 294 276 281 298 302 303 300 298 301 302 304 307 305 304 302 303 298 nan nan 292 nan nan nan nan nan nan nan nan nan nan nan nan nan nan nan nan nan nan nan nan nan nan nan nan nan nan nan nan nan nan nan nan nan nan nan nan nan nan nan nan nan nan nan nan nan nan nan nan nan nan nan nan nan 281 279 nan nan nan nan nan nan nan nan